EW5286 Weather Reports


Display with metric or nautical units.
time (UTC)temp
F
wind
direction
speed
MPH
gust
MPH
rain 1hr
in
rain 24hr
in
rain mn
in
humidity
%
barometer
mb
20260504213428 76 241 8.0 13.0 0.00 0.00 0.00 51 1008.5
20260504213044 76 239 6.0 15.0 0.00 0.00 0.00 52 1007.7
20260504212937 76 251 7.0 15.0 0.00 0.00 0.00 51 1008.6
20260504212447 77 250 8.0 15.0 0.00 0.00 0.00 50 1008.7
20260504211929 77 236 7.0 13.0 0.00 0.00 0.00 51 1008.7
20260504211526 76 260 6.0 14.0 0.00 0.00 0.00 51 1008.0
20260504211435 77 248 7.0 14.0 0.00 0.00 0.00 51 1008.8
20260504210947 77 238 6.0 14.0 0.00 0.00 0.00 50 1008.9
20260504210429 76 206 9.0 17.0 0.00 0.00 0.00 49 1009.0
20260504210034 76 255 9.0 17.0 0.00 0.00 0.00 49 1008.2
20260504205940 76 231 10.0 17.0 0.00 0.00 0.00 49 1009.0
20260504205423 77 249 8.0 17.0 0.00 0.00 0.00 50 1009.1
20260504204934 77 219 8.0 17.0 0.00 0.00 0.00 50 1009.0
20260504204521 76 251 6.0 15.0 0.00 0.00 0.00 50 1008.4
20260504204423 76 250 6.0 13.0 0.00 0.00 0.00 50 1009.3
20260504203925 77 213 8.0 13.0 0.00 0.00 0.00 49 1009.3
20260504203436 77 227 7.0 13.0 0.00 0.00 0.00 50 1009.4
20260504203029 76 243 7.0 18.0 0.00 0.00 0.00 51 1008.5
20260504202925 77 208 7.0 18.0 0.00 0.00 0.00 50 1009.4
20260504202427 77 218 9.0 18.0 0.00 0.00 0.00 49 1009.4
20260504201939 77 239 6.0 13.0 0.00 0.00 0.00 51 1009.5
20260504201535 76 223 6.0 15.0 0.00 0.00 0.00 50 1008.7
20260504201430 76 227 7.0 15.0 0.00 0.00 0.00 50 1009.6
20260504200940 76 250 8.0 15.0 0.00 0.00 0.00 51 1009.8
20260504200511 76 237 9.0 15.0 0.00 0.00 0.00 51 1009.8
20260504200104 76 237 7.0 14.0 0.00 0.00 0.00 50 1009.0
20260504195931 77 247 7.0 13.0 0.00 0.00 0.00 51 1009.9
20260504195422 77 156 6.0 15.0 0.00 0.00 0.00 49 1010.0
20260504194951 77 247 9.0 16.0 0.00 0.00 0.00 50 1010.0
20260504194506 76 245 9.0 16.0 0.00 0.00 0.00 50 1009.1
20260504194429 77 245 9.0 16.0 0.00 0.00 0.00 50 1010.0
20260504193949 77 233 8.0 16.0 0.00 0.00 0.00 48 1010.1
20260504193431 77 243 7.0 13.0 0.00 0.00 0.00 49 1010.3
20260504193035 77 248 6.0 13.0 0.00 0.00 0.00 49 1009.5
20260504192940 77 236 6.0 13.0 0.00 0.00 0.00 50 1010.4
20260504192422 77 233 6.0 15.0 0.00 0.00 0.00 51 1010.5
20260504191935 76 243 8.0 17.0 0.00 0.00 0.00 51 1010.5
20260504191542 76 230 8.0 17.0 0.00 0.00 0.00 49 1009.7
20260504191444 77 236 9.0 17.0 0.00 0.00 0.00 49 1010.7
20260504190947 77 234 7.0 15.0 0.00 0.00 0.00 51 1010.6
20260504190437 76 245 8.0 16.0 0.00 0.00 0.00 50 1010.6
20260504190028 75 251 8.0 16.0 0.00 0.00 0.00 51 1009.8
20260504185927 76 273 9.0 16.0 0.00 0.00 0.00 50 1010.6
20260504185458 76 226 6.0 16.0 0.00 0.00 0.00 53 1010.8
20260504184929 75 253 10.0 16.0 0.00 0.00 0.00 50 1010.8
20260504184556 75 229 8.0 15.0 0.00 0.00 0.00 52 1010.0
20260504184424 75 239 10.0 15.0 0.00 0.00 0.00 51 1011.0
20260504183935 76 246 8.0 14.0 0.00 0.00 0.00 53 1011.0
20260504183446 75 245 8.0 13.0 0.00 0.00 0.00 52 1011.1
20260504183041 75 234 9.0 16.0 0.00 0.00 0.00 53 1010.2
20260504182936 76 203 8.0 16.0 0.00 0.00 0.00 51 1011.0
20260504182438 75 226 10.0 16.0 0.00 0.00 0.00 51 1010.8
20260504181927 76 231 8.0 12.0 0.00 0.00 0.00 51 1011.1
20260504181529 75 243 6.0 12.0 0.00 0.00 0.00 52 1010.4
20260504181436 75 229 6.0 12.0 0.00 0.00 0.00 52 1011.1
20260504180947 75 281 6.0 12.0 0.00 0.00 0.00 52 1011.1
20260504180449 76 224 7.0 12.0 0.00 0.00 0.00 51 1011.3
20260504180012 75 252 5.0 12.0 0.00 0.00 0.00 55 1010.6
20260504175938 76 245 5.0 12.0 0.00 0.00 0.00 53 1011.3
20260504175421 75 243 7.0 13.0 0.00 0.00 0.00 53 1011.3
20260504174931 75 233 6.0 12.0 0.00 0.00 0.00 52 1011.4
20260504174518 74 240 6.0 14.0 0.00 0.00 0.00 52 1010.7
20260504174421 75 258 6.0 14.0 0.00 0.00 0.00 53 1011.5
20260504173923 75 245 8.0 16.0 0.00 0.00 0.00 52 1011.5
20260504173435 75 249 7.0 11.0 0.00 0.00 0.00 52 1011.7
20260504173025 74 247 6.0 12.0 0.00 0.00 0.00 52 1011.0
20260504172925 74 230 7.0 12.0 0.00 0.00 0.00 52 1011.8
20260504172423 74 253 7.0 17.0 0.00 0.00 0.00 52 1011.8
20260504171935 74 243 9.0 17.0 0.00 0.00 0.00 52 1011.9
20260504171534 73 249 8.0 15.0 0.00 0.00 0.00 53 1011.1
20260504171445 74 252 8.0 15.0 0.00 0.00 0.00 53 1012.0
20260504170932 74 247 10.0 15.0 0.00 0.00 0.00 53 1011.9
20260504170435 74 250 8.0 16.0 0.00 0.00 0.00 52 1012.0
20260504160428 72 223 7.0 15.0 0.00 0.00 0.00 54 1012.8
20260504150957 69 249 8.0 10.0 0.00 0.00 0.00 64 1012.8
20260504150442 68 255 5.0 8.0 0.00 0.00 0.00 67 1012.8
20260504140928 63 264 2.0 8.0 0.00 0.00 0.00 76 1013.3
20260504140440 62 250 4.0 8.0 0.00 0.00 0.00 76 1013.3
20260504130432 57 239 2.0 3.0 0.00 0.00 0.00 85 1013.2
20260504110507 57 251 3.0 4.0 0.00 0.00 0.00 81 1012.2
20260504100431 59 236 3.0 5.0 0.00 0.00 0.00 77 1012.8
20260504082008 61 245 4.0 6.0 0.00 0.00 0.00 75 1012.9
20260504081501 60 244 3.0 5.0 0.00 0.00 0.00 74 1012.2
20260504081428 61 239 3.0 5.0 0.00 0.00 0.00 74 1012.9
20260504080938 61 248 3.0 5.0 0.00 0.00 0.00 74 1012.9
20260504080450 61 252 3.0 5.0 0.00 0.00 0.00 74 1013.0
20260504070109 61 238 3.0 4.0 0.00 0.00 0.00 74 1012.8
20260504050436 64 231 4.0 5.0 0.00 0.00 0.00 70 1014.0
20260504045942 64 247 3.0 6.0 0.00 0.00 0.00 69 1014.0
20260504045424 65 219 4.0 6.0 0.00 0.00 0.00 69 1014.0
20260504044936 65 243 4.0 6.0 0.00 0.00 0.00 68 1014.0
20260504044600 64 244 4.0 6.0 0.00 0.00 0.00 68 1013.3
20260504044437 65 231 4.0 6.0 0.00 0.00 0.00 68 1014.0
20260504043929 65 250 4.0 8.0 0.00 0.00 0.00 67 1014.0
20260504043440 66 240 5.0 8.0 0.00 0.00 0.00 66 1013.9
20260504043102 65 244 4.0 8.0 0.00 0.00 0.00 66 1013.3
20260504042940 66 233 5.0 8.0 0.00 0.00 0.00 66 1013.9
20260504042431 66 249 6.0 8.0 0.00 0.00 0.00 66 1014.0
20260504041943 66 248 6.0 8.0 0.00 0.00 0.00 66 1013.9
20260504041509 65 237 5.0 8.0 0.00 0.00 0.00 66 1013.4
20260504041424 66 231 5.0 8.0 0.00 0.00 0.00 66 1014.0
20260504040936 66 229 6.0 8.0 0.00 0.00 0.00 66 1014.2
20260504040439 66 248 5.0 7.0 0.00 0.00 0.00 66 1014.2
20260504040017 65 229 5.0 7.0 0.00 0.00 0.00 66 1013.5
20260504035929 66 237 5.0 7.0 0.00 0.00 0.00 66 1014.2
20260504035441 66 247 5.0 7.0 0.00 0.00 0.00 65 1014.3
20260504034924 66 242 5.0 7.0 0.00 0.00 0.00 65 1014.3
20260504034522 66 252 4.0 7.0 0.00 0.00 0.00 64 1013.7
20260504034434 67 236 5.0 7.0 0.00 0.00 0.00 64 1014.3
20260504033946 67 239 5.0 7.0 0.00 0.00 0.00 64 1014.4
20260504033427 67 239 5.0 7.0 0.00 0.00 0.00 64 1014.4
20260504033011 67 252 4.0 8.0 0.00 0.00 0.00 63 1013.8
20260504032936 67 238 5.0 8.0 0.00 0.00 0.00 63 1014.4
20260504032443 67 244 5.0 9.0 0.00 0.00 0.00 63 1014.4
20260504031924 67 251 5.0 7.0 0.00 0.00 0.00 62 1014.4
20260504031512 67 223 5.0 7.0 0.00 0.00 0.00 62 1013.7
20260504031431 68 254 6.0 7.0 0.00 0.00 0.00 62 1014.3
20260504030943 68 247 6.0 7.0 0.00 0.00 0.00 62 1014.3
20260504030456 68 251 5.0 7.0 0.00 0.00 0.00 62 1014.3
20260504025935 68 238 6.0 7.0 0.00 0.00 0.00 62 1014.3
20260504025447 68 237 5.0 7.0 0.00 0.00 0.00 61 1014.4
20260504024958 68 235 5.0 7.0 0.00 0.00 0.00 61 1014.3
20260504024529 68 238 5.0 7.0 0.00 0.00 0.00 61 1013.7
20260504024427 68 247 5.0 7.0 0.00 0.00 0.00 61 1014.3
20260504023929 68 234 5.0 6.0 0.00 0.00 0.00 60 1014.2
20260504023441 68 221 5.0 6.0 0.00 0.00 0.00 60 1014.2
20260504023037 68 234 4.0 6.0 0.00 0.00 0.00 60 1013.5
20260504022931 69 240 5.0 6.0 0.00 0.00 0.00 60 1014.1
20260504022502 69 237 5.0 6.0 0.00 0.00 0.00 60 1014.0
20260504021924 69 248 5.0 6.0 0.00 0.00 0.00 59 1014.1
20260504021523 69 238 4.0 8.0 0.00 0.00 0.00 59 1013.4
20260504021434 69 236 4.0 9.0 0.00 0.00 0.00 59 1014.1
20260504020932 69 247 5.0 9.0 0.00 0.00 0.00 59 1014.0
20260504020423 69 238 5.0 6.0 0.00 0.00 0.00 59 1014.0
20260504020030 69 237 4.0 6.0 0.00 0.00 0.00 58 1013.3
20260504015933 69 248 5.0 6.0 0.00 0.00 0.00 58 1013.9
20260504015435 70 237 4.0 6.0 0.00 0.00 0.00 58 1013.9
20260504014927 70 244 4.0 8.0 0.00 0.00 0.00 58 1013.9
20260504014538 70 235 4.0 8.0 0.00 0.00 0.00 57 1013.3
20260504014436 70 241 5.0 8.0 0.00 0.00 0.00 57 1013.8
20260504013948 70 239 5.0 8.0 0.00 0.00 0.00 57 1013.7
20260504013430 70 236 5.0 8.0 0.00 0.00 0.00 56 1013.8
20260504013034 70 248 5.0 7.0 0.00 0.00 0.00 56 1013.2
20260504012959 70 237 5.0 7.0 0.00 0.00 0.00 56 1013.8
20260504012430 71 234 5.0 7.0 0.00 0.00 0.00 56 1013.8
20260504011933 71 238 5.0 6.0 0.00 0.00 0.00 56 1013.8
20260504011510 70 229 4.0 7.0 0.00 0.00 0.00 56 1013.2
20260504011439 71 217 4.0 7.0 0.00 0.00 0.00 56 1013.8
20260504010931 71 235 4.0 7.0 0.00 0.00 0.00 56 1013.8
20260504010434 71 243 4.0 6.0 0.00 0.00 0.00 56 1013.7
20260504010018 71 230 4.0 6.0 0.00 0.00 0.00 56 1013.1
20260504005924 71 240 4.0 6.0 0.00 0.00 0.00 56 1013.7
20260504005427 72 240 4.0 6.0 0.00 0.00 0.00 55 1013.7
20260504004938 72 224 4.0 5.0 0.00 0.00 0.00 54 1013.6
20260504004529 72 236 4.0 5.0 0.00 0.00 0.00 54 1013.1
20260504004428 72 230 4.0 5.0 0.00 0.00 0.00 54 1013.7
20260504003925 73 224 4.0 6.0 0.00 0.00 0.00 54 1013.7
20260504003436 73 256 4.0 5.0 0.00 0.00 0.00 53 1013.8
20260504003011 72 245 3.0 5.0 0.00 0.00 0.00 53 1013.2
20260504002925 73 243 4.0 5.0 0.00 0.00 0.00 53 1013.8
20260504002458 73 224 4.0 6.0 0.00 0.00 0.00 52 1013.8
20260504001949 73 245 4.0 6.0 0.00 0.00 0.00 52 1013.8
20260504001604 73 243 3.0 5.0 0.00 0.00 0.00 51 1013.2
20260504001459 74 245 3.0 5.0 0.00 0.00 0.00 52 1013.9
20260504000940 74 239 4.0 5.0 0.00 0.00 0.00 51 1013.8
20260504000432 74 213 4.0 7.0 0.00 0.00 0.00 50 1013.9
20260504000121 74 246 4.0 7.0 0.00 0.00 0.00 50 1013.3
20260503235932 75 234 4.0 7.0 0.00 0.00 0.00 50 1014.0
20260503235424 75 233 5.0 8.0 0.00 0.00 0.00 49 1014.0
20260503234934 75 252 5.0 8.0 0.00 0.00 0.00 49 1014.0
20260503234547 75 196 4.0 9.0 0.00 0.00 0.00 49 1013.3
20260503234423 75 252 4.0 9.0 0.00 0.00 0.00 48 1014.0
20260503233925 75 218 4.0 7.0 0.00 0.00 0.00 48 1014.1
20260503233433 75 170 4.0 7.0 0.00 0.00 0.00 48 1014.1
20260503233024 75 217 3.0 6.0 0.00 0.00 0.00 48 1013.5
20260503232923 75 249 4.0 6.0 0.00 0.00 0.00 48 1014.1
20260503232426 75 246 3.0 6.0 0.00 0.00 0.00 47 1014.1
20260503231939 75 236 3.0 6.0 0.00 0.00 0.00 48 1014.1
20260503231532 75 257 3.0 6.0 0.00 0.00 0.00 47 1013.5
20260503231427 76 212 3.0 6.0 0.00 0.00 0.00 48 1014.1
20260503230930 76 254 3.0 8.0 0.00 0.00 0.00 47 1014.1
20260503230440 76 244 5.0 8.0 0.00 0.00 0.00 46 1014.0
20260503230018 75 250 4.0 7.0 0.00 0.00 0.00 46 1013.4
20260503225950 76 245 5.0 7.0 0.00 0.00 0.00 45 1014.0
20260503225420 76 275 5.0 9.0 0.00 0.00 0.00 45 1014.0
20260503224930 76 218 4.0 9.0 0.00 0.00 0.00 46 1014.1
20260503224547 76 264 3.0 9.0 0.00 0.00 0.00 46 1013.5
20260503224432 76 238 3.0 5.0 0.00 0.00 0.00 46 1014.1
20260503223921 77 245 2.0 5.0 0.00 0.00 0.00 45 1014.1
20260503223452 77 244 4.0 6.0 0.00 0.00 0.00 45 1014.3
20260503223015 76 247 3.0 9.0 0.00 0.00 0.00 45 1013.7
20260503222936 77 230 3.0 9.0 0.00 0.00 0.00 44 1014.3
20260503222425 77 229 5.0 9.0 0.00 0.00 0.00 44 1014.4
20260503221957 77 233 5.0 7.0 0.00 0.00 0.00 43 1014.4
20260503221520 77 240 3.0 7.0 0.00 0.00 0.00 43 1013.9
20260503221426 77 242 3.0 7.0 0.00 0.00 0.00 42 1014.5
20260503220928 78 227 4.0 7.0 0.00 0.00 0.00 44 1014.5
20260503220440 78 231 4.0 7.0 0.00 0.00 0.00 42 1014.5
20260503220030 78 228 3.0 6.0 0.00 0.00 0.00 43 1014.0
20260503215930 78 179 4.0 6.0 0.00 0.00 0.00 42 1014.6
20260503215433 78 238 2.0 6.0 0.00 0.00 0.00 44 1014.7
20260503214925 78 307 3.0 6.0 0.00 0.00 0.00 43 1014.7
20260503214542 78 253 3.0 11.0 0.00 0.00 0.00 42 1014.2
20260503214435 78 252 4.0 11.0 0.00 0.00 0.00 43 1014.7
20260503213938 78 258 5.0 11.0 0.00 0.00 0.00 43 1014.8